CAPE
0 0 0 0 0 0 0 0 0 0 0 0 0 0 0 0 0 2 0 0 1 1 2 1 1 1 1 0 0 0 0 0 0 0 0 0 0 1 3 3 2 0 0
0 0 0 0 0 0 0 0 0 0 1 1 1 1 1 0 0 2 0 0 1 0 0 0 0 0 0 0 0 0 0 0 1 0 0 0 0 0 2 1 2 0 0
0 0 0 0 0 0 0 1 2 2 2 2 1 1 1 0 0 0 0 0 0 0 0 0 0 0 0 0 0 0 1 1 2 2 0 0 1 1 1 1 0 0 0
0 0 0 0 0 0 2 3 2 1 1 1 0 0 0 0 0 0 0 0 0 0 0 0 0 0 0 0 0 0 1 1 1 1 1 1 0 0 0 0 0 0 0
0 0 0 0 0 0 0 0 0 0 0 0 0 0 0 0 0 0 0 0 0 0 0 0 0 1 1 1 1 1 2 2 2 4 1 0 0 0 0 0 0 0 0
0 0 0 0 0 0 0 0 0 0 0 0 0 0 0 0 1 0 0 0 1 1 1 0 0 0 0 0 0 0 0 1 1 0 0 0 0 0 0 0 0 0 0
0 0 0 0 0 0 0 0 0 0 0 0 0 0 0 0 0 0 0 0 0 0 0 0 0 0 0 0 0 0 0 0 0 0 0 0 0 0 0 0 0 0 0
0 0 0 0 0 0 0 0 0 0 0 0 0 0 0 0 0 0 0 0 0 0 0 0 0 0 0 0 0 0 0 0 0 0 0 0 0 0 0 0 0 0 0
0 0 0 0 0 0 0 0 0 0 0 0 0 0 0 0 0 0 0 0 0 0 0 0 0 0 0 0 0 0 0 0 0 0 0 0 1 2 1 1 0 0 1
0 0 0 0 0 0 0 0 0 0 0 0 0 0 0 0 0 0 0 0 0 0 0 0 0 0 0 0 0 0 0 0 0 0 0 0 0 0 0 0 0 0 2
0 0 0 0 0 0 0 0 0 0 0 0 0 0 0 0 2 0 0 0 0 0 0 0 0 0 0 0 1 0 0 0 0 0 0 0 0 0 0 1 0 1 2
0 0 0 0 0 0 0 0 0 0 0 0 0 1 2 1 1 0 0 0 0 0 0 0 0 0 0 1 0 0 1 0 0 0 0 0 0 1 1 0 0 0 0
0 0 0 0 0 0 0 0 0 0 0 0 0 0 0 0 0 1 1 0 0 0 1 1 1 0 0 1 0 0 0 0 1 1 1 1 0 0 0 0 0 0 1
0 0 0 0 0 0 2 2 0 0 0 0 0 0 0 0 0 0 1 1 0 1 1 1 1 1 1 1 1 0 0 0 1 0 0 1 2 1 0 0 0 0 0
0 0 0 0 0 0 2 2 0 1 0 0 0 0 0 0 0 0 0 0 2 1 0 0 0 1 2 1 0 0 1 1 1 0 1 0 0 0 0 0 0 0 0
0 0 0 0 0 1 1 3 0 0 0 0 0 0 0 0 0 0 0 0 0 1 1 0 0 0 0 0 0 0 0 1 0 1 0 0 0 0 0 0 0 1 1
0 0 0 0 2 1 3 2 1 1 0 0 0 0 0 0 1 1 1 1 1 0 0 0 0 0 0 0 0 1 0 1 0 0 0 0 1 0 3 2 0 0 1
0 0 0 2 2 3 3 3 3 3 0 2 1 1 1 1 1 2 1 1 0 0 0 0 0 0 0 0 0 0 0 0 0 0 0 0 0 1 0 1 0 1 1
1 2 2 3 3 2 2 2 3 3 1 0 0 0 0 2 1 1 1 0 0 0 0 0 0 0 0 0 0 0 0 0 0 0 0 0 0 0 0 0 0 0 0
2 1 2 1 0 0 0 1 1 0 0 0 0 0 0 0 0 0 0 0 0 0 0 0 0 0 0 0 0 0 0 0 0 0 0 0 0 0 0 0 0 0 0
3 2 1 1 1 1 2 0 0 0 0 0 0 0 0 0 0 0 0 0 0 0 0 0 0 0 0 0 0 0 0 0 0 0 0 0 0 0 0 0 0 0 0
1 1 1 0 0 0 0 0 0 0 0 0 0 0 0 0 0 0 0 0 0 0 0 0 0 0 0 0 0 0 0 0 0 0 0 0 0 0 0 0 0 0 0
0 0 0 0 0 0 0 0 0 0 0 0 0 0 0 0 0 0 0 0 0 0 0 0 0 0 0 0 0 0 0 0 0 0 0 0 0 0 0 0 0 0 0
0 0 0 0 0 0 0 0 0 0 0 0 0 0 0 0 0 0 0 0 0 0 0 0 0 0 0 0 0 0 0 0 0 0 0 0 0 0 0 0 0 0 0
0 0 0 0 0 0 0 0 0 0 0 0 0 0 0 0 0 0 0 0 0 0 0 0 0 0 0 0 0 0 0 0 0 0 0 0 0 0 0 0 0 0 0
0 0 0 0 0 0 0 0 0 0 0 0 0 0 0 0 0 0 0 0 0 0 0 0 0 0 0 0 0 0 0 0 0 0 0 0 0 0 0 0 0 0 0
CIN
-0 -0 -0 -0 -0 -0 -0 -0 -0 -0 -0 -0 -0 -0 -0 -0 -0 -0 -0 -0 -0 -0 -0 -0 -0 -0 -0 -0 -0 -0 -0 -0 -0 -0 -0 -0 -0 -0 -0 -0 -0 -0 -0
-0 -0 -0 -0 -0 -0 -0 -0 -0 -0 -0 -0 -0 -0 -0 -0 -0 -0 -0 -0 -0 -0 -0 -0 -0 -0 -0 -0 -0 -0 -0 -0 -0 -0 -0 -0 -0 -0 -0 -0 -0 -0 -0
-0 -0 -0 -0 -0 -0 -0 -0 -0 -0 -0 -0 -0 -0 -0 -0 -0 -0 -0 -0 -0 -4 -3 -0 -0 -0 -0 -0 -0 -0 -0 -0 -0 -0 -0 -0 -0 -0 -0 -0 -0 -0 -0
-0 -0 -0 -0 -0 -0 -0 -0 -0 -0 -0 -0 -0 -0 -0 -0 -0 -0 -0 -0 -0 -0 -0 -0 -0 -0 -0 -0 -0 -0 -0 -0 -0 -0 -0 -0 -0 -0 -0 -0 -0 -0 -0
-0 -0 -0 -0 -0 -0 -0 -0 -0 -0 -0 -0 -0 -0 -0 -0 -0 -0 -0 -0 -0 -0 -0 -0 -0 -0 -0 -0 -0 -0 -0 -0 -0 -0 -0 -0 -0 -0 -0 -0 -0 -0 -0
-0 -0 -0 -0 -0 -0 -0 -0 -0 -0 -0 -0 -0 -0 -0 -0 -0 -0 -0 -0 -0 -0 -0 -0 -0 -0 -0 -0 -0 -0 -0 -0 -0 -0 -0 -0 -0 -0 -0 -0 -0 -0 -0
-0 -0 -0 -0 -0 -0 -0 -0 -0 -0 -0 -0 -0 -0 -0 -0 -0 -0 -0 -0 -0 -0 -0 -0 -0 -0 -0 -0 -0 -0 -0 -0 -0 -0 -0 -0 -0 -0 -0 -0 -0 -0 -0
-0 -0 -0 -0 -0 -0 -0 -0 -0 -0 -0 -0 -0 -0 -0 -0 -0 -0 -0 -0 -0 -0 -0 -0 -0 -0 -0 -0 -0 -0 -0 -0 -0 -0 -0 -0 -0 -0 -0 -0 -0 -0 -0
-0 -0 -0 -0 -0 -0 -0 -0 -0 -0 -0 -0 -0 -0 -0 -0 -0 -0 -0 -0 -0 -0 -0 -0 -0 -0 -0 -0 -0 -0 -0 -0 -0 -0 -0 -0 -0 -0 -0 -0 -0 -0 -0
-0 -0 -0 -0 -0 -0 -0 -0 -0 -0 -0 -0 -0 -0 -0 -0 -0 -0 -0 -0 -0 -0 -0 -0 -0 -0 -0 -0 -0 -0 -0 -0 -0 -0 -0 -0 -0 -0 -0 -0 -0 -0 -0
-0 -0 -0 -0 -0 -0 -0 -0 -0 -0 -0 -0 -0 -0 -0 -0 -0 -0 -0 -0 -0 -0 -0 -0 -0 -0 -0 -0 -0 -0 -0 -0 -0 -0 -0 -0 -0 -0 -0 -0 -1 -0 -0
-0 -0 -0 -0 -0 -0 -0 -0 -0 -0 -0 -0 -0 -0 -0 -0 -0 -0 -0 -0 -0 -0 -0 -0 -0 -0 -0 -0 -0 -0 -0 -0 -0 -0 -0 -0 -0 -0 -0 -2 -0 -0 -0
-0 -0 -0 -0 -0 -0 -0 -0 -0 -0 -0 -0 -0 -0 -0 -0 -0 -0 -0 -0 -0 -0 -0 -0 -0 -0 -0 -0 -0 -0 -0 -0 -0 -0 -0 -0 -0 -0 -0 -0 -0 -0 -0
-0 -0 -0 -0 -0 -0 -0 -0 -0 -0 -0 -0 -0 -0 -0 -0 -0 -0 -0 -0 -0 -0 -0 -0 -0 -0 -0 -0 -0 -0 -0 -0 -0 -0 -0 -0 -0 -0 -0 -0 -0 -1 -0
-0 -0 -0 -0 -0 -0 -0 -0 -0 -0 -0 -0 -0 -0 -0 -0 -0 -0 -0 -0 -0 -0 -0 -0 -0 -0 -0 -0 -0 -0 -0 -0 -0 -0 -0 -0 -0 -0 -0 -0 -0 -0 -0
-0 -0 -0 -0 -0 -0 -0 -0 -0 -0 -0 -0 -0 -0 -0 -0 -0 -0 -0 -0 -0 -0 -0 -0 -0 -0 -0 -0 -0 -0 -0 -0 -0 -0 -0 -0 -0 -0 -0 -0 -0 -0 -0
-0 -0 -0 -0 -0 -0 -0 -0 -0 -0 -0 -0 -0 -0 -0 -0 -0 -0 -0 -0 -0 -0 -0 -0 -0 -0 -0 -0 -0 -0 -0 -0 -0 -0 -1 -0 -1 -2 -0 -1 -1 -1 -1
-0 -0 -0 -0 -0 -0 -0 -0 -0 -0 -0 -0 -0 -0 -0 -0 -0 -0 -0 -0 -0 -0 -0 -0 -0 -0 -0 -0 -0 -0 -0 -0 -0 -0 -0 -0 -0 -0 -0 -0 -0 -0 -0
-0 -0 -0 -0 -0 -0 -0 -0 -0 -0 -0 -0 -0 -0 -0 -0 -0 -0 -0 -0 -0 -0 -0 -0 -0 -0 -0 -0 -0 -0 -0 -0 -0 -0 -0 -0 -0 -0 -0 -0 -0 -0 -0
-0 -0 -0 -0 -0 -0 -0 -0 -0 -0 -0 -0 -0 -0 -0 -0 -0 -0 -0 -0 -0 -0 -0 -0 -0 -0 -0 -0 -0 -0 -0 -0 -0 -0 -0 -0 -0 -0 -0 -0 -0 -0 -0
-0 -0 -0 -0 -0 -0 -0 -0 -0 -0 -0 -0 -0 -0 -0 -0 -0 -0 -0 -0 -0 -0 -0 -0 -0 -0 -0 -0 -0 -0 -0 -0 -0 -0 -0 -0 -0 -0 -0 -0 -0 -0 -0
-0 -0 -0 -0 -0 -0 -0 -0 -0 -0 -0 -0 -0 -0 -0 -0 -0 -0 -0 -0 -0 -0 -0 -0 -0 -0 -0 -0 -0 -0 -0 -0 -0 -0 -0 -0 -0 -0 -0 -0 -0 -0 -0
-0 -0 -0 -0 -0 -0 -0 -0 -0 -0 -0 -0 -0 -0 -0 -0 -0 -0 -0 -0 -0 -0 -0 -0 -0 -0 -0 -0 -0 -0 -0 -0 -0 -0 -0 -0 -0 -0 -0 -0 -0 -0 -0
-0 -0 -0 -0 -0 -0 -0 -0 -0 -0 -0 -0 -0 -0 -0 -0 -0 -0 -0 -0 -0 -0 -0 -0 -0 -0 -0 -0 -0 -0 -0 -0 -0 -0 -0 -0 -0 -0 -0 -0 -0 -0 -0
-0 -0 -0 -0 -0 -0 -0 -0 -0 -0 -0 -0 -0 -0 -0 -0 -0 -0 -0 -0 -0 -0 -0 -0 -0 -0 -0 -0 -0 -0 -0 -0 -0 -0 -0 -0 -0 -0 -0 -0 -0 -0 -0
-0 -0 -0 -0 -0 -0 -0 -0 -0 -0 -0 -0 -0 -0 -0 -0 -0 -0 -0 -0 -0 -0 -0 -0 -0 -0 -0 -0 -0 -0 -0 -0 -0 -0 -0 -0 -0 -0 -0 -0 -0 -0 -0
Wind_Speed
29 27 26 26 24 23 23 23 22 22 22 21 21 22 22 21 20 19 19 20 21 21 20 21 21 22 23 23 23 23 22 20 21 23 22 21 20 16 17 12 10 9 10
28 27 26 26 25 26 26 25 25 25 24 24 23 22 21 21 20 20 20 18 19 20 20 20 21 22 23 23 22 22 20 18 18 18 22 21 17 19 18 16 14 13 11
28 28 28 27 27 27 27 26 24 24 24 24 23 22 21 20 19 18 17 17 17 17 19 21 21 22 23 23 21 19 20 19 17 16 18 21 22 21 21 19 19 17 15
29 28 28 28 27 27 26 25 24 24 23 22 21 20 19 18 17 17 16 17 18 19 20 20 21 21 21 21 20 20 20 17 15 16 20 21 21 22 22 22 21 19 18
31 31 30 28 26 26 25 24 23 22 22 21 20 19 18 17 16 17 17 18 17 18 18 19 21 21 22 22 22 21 19 17 18 19 20 21 21 22 22 23 24 23 23
30 30 27 25 24 23 22 21 20 19 18 17 18 18 18 18 17 16 15 17 17 17 17 17 18 19 20 19 19 19 16 17 16 17 19 22 23 23 24 25 25 28 30
26 24 23 22 21 21 20 20 20 21 20 20 19 18 17 16 15 15 14 14 15 15 15 15 16 17 17 18 18 17 15 12 13 16 20 22 24 24 24 25 26 27 28
26 23 22 21 20 20 20 21 21 20 19 19 18 16 15 15 14 13 13 14 14 13 13 14 15 15 15 15 15 16 15 15 15 17 19 21 22 23 23 26 26 27 28
30 27 24 23 22 22 22 21 20 19 18 18 16 15 15 14 13 12 12 11 11 12 13 14 16 17 17 15 15 15 16 17 17 18 20 22 23 23 23 25 28 31 34
33 28 25 24 24 24 22 20 19 17 17 16 15 14 14 14 13 12 11 11 11 12 14 15 16 16 15 14 15 15 17 18 19 20 22 23 22 22 24 23 26 31 33
32 30 29 27 26 24 22 21 19 17 16 15 15 15 14 13 11 11 11 11 11 11 13 15 16 15 14 13 14 15 17 17 19 20 21 21 22 23 24 24 25 27 31
31 31 31 28 26 24 22 19 17 17 17 16 15 15 15 12 11 11 11 11 10 10 12 14 15 14 14 14 14 15 16 16 18 20 22 23 24 25 26 26 26 26 26
34 33 31 28 26 24 23 21 20 18 18 17 16 16 15 14 13 11 10 10 11 12 12 12 12 13 14 15 16 17 17 18 19 21 23 24 25 26 27 28 28 28 29
35 34 32 30 27 25 24 23 22 21 19 17 17 17 15 14 12 11 10 10 10 11 11 13 12 14 15 16 17 18 18 19 20 22 24 25 26 27 29 30 32 33 35
35 34 32 30 27 25 25 24 24 22 20 17 17 15 13 13 12 10 9 9 10 11 11 12 13 15 16 17 18 18 19 19 21 23 25 27 28 30 32 32 33 35 37
34 34 33 31 28 26 24 23 22 20 19 17 14 13 12 11 9 8 8 9 9 8 12 14 16 17 18 19 20 20 20 23 23 25 26 28 30 31 33 33 34 36 38
33 31 30 30 30 28 25 23 21 17 15 14 12 11 10 9 8 8 8 9 9 11 15 16 16 17 18 20 21 22 23 24 24 26 28 29 31 32 34 35 36 36 37
29 28 29 29 28 28 26 24 22 21 19 17 13 12 11 10 10 8 8 10 12 14 16 17 18 18 19 21 22 23 24 26 27 29 30 31 32 34 35 36 36 37 37
29 27 27 28 27 26 25 23 23 21 19 16 14 13 12 12 12 10 11 16 16 16 16 17 18 19 20 21 22 24 25 27 28 30 31 32 33 34 35 35 35 36 36
24 27 26 26 26 26 25 24 23 22 19 17 16 15 14 15 16 17 17 17 17 17 18 19 19 20 22 23 23 25 26 28 30 30 31 32 33 33 34 35 35 36 36
22 23 24 25 25 25 25 24 23 21 19 18 17 16 16 18 17 16 17 17 18 18 19 20 21 22 22 23 24 26 27 28 29 30 30 31 32 33 33 33 34 35 35
20 20 22 23 23 23 22 22 21 20 18 18 17 17 17 17 17 17 18 18 19 20 21 22 23 23 24 25 25 26 27 28 28 29 30 30 31 32 32 33 34 34 34
17 17 18 19 19 20 20 20 20 20 19 18 18 17 17 18 18 19 19 20 22 23 23 24 24 25 24 25 25 26 27 28 28 28 29 30 31 32 32 33 34 35 36
13 14 15 16 17 18 18 19 20 19 19 18 18 19 20 20 20 22 23 24 25 25 25 25 25 26 25 25 25 25 26 26 27 28 28 30 31 31 32 33 33 35 34
12 12 14 16 16 17 17 18 19 19 20 21 22 23 23 26 27 27 27 27 27 27 27 26 26 26 26 26 26 26 26 27 28 28 29 29 31 31 32 32 34 34 33
13 14 15 17 18 18 19 20 22 23 25 27 28 29 30 30 30 30 30 30 30 29 29 28 27 27 27 27 28 28 28 29 29 29 29 30 31 31 31 34 34 33 31
Wind_Direction
273 271 263 262 262 264 265 266 267 273 276 278 282 285 286 287 288 289 290 295 298 299 301 302 303 307 310 312 316 318 318 321 319 326 333 338 341 343 345 341 336 328 324
275 272 267 265 266 267 269 269 271 273 277 280 282 284 285 285 287 288 292 293 294 297 300 302 305 312 314 318 319 319 322 322 322 323 335 340 343 347 346 343 343 337 330
274 272 270 267 268 269 270 272 273 276 279 282 284 285 287 288 288 288 290 294 295 299 306 310 313 316 317 319 321 322 323 325 326 328 336 343 343 343 345 342 340 338 334
276 273 270 269 270 271 273 275 276 279 281 284 286 287 288 290 291 293 295 300 306 309 312 314 317 317 318 320 322 323 325 328 334 333 333 337 341 339 340 339 340 339 336
277 274 273 273 273 274 275 277 280 282 284 287 289 292 296 297 299 301 302 304 307 311 316 319 320 321 321 321 322 324 328 329 331 330 331 334 336 338 338 339 337 339 338
277 275 274 272 272 273 275 277 280 283 286 289 290 292 296 300 302 302 302 304 308 310 313 319 322 324 323 323 321 324 329 326 329 332 331 330 331 334 335 335 335 336 337
277 274 272 271 271 272 274 277 280 283 286 288 290 292 295 299 301 302 303 305 307 312 316 321 326 326 325 324 322 326 330 332 332 332 330 331 332 333 335 335 333 333 333
272 269 268 269 269 271 275 278 281 284 285 288 291 294 297 299 299 301 304 307 311 316 322 325 326 325 326 328 327 326 331 335 334 337 337 335 335 335 334 335 334 333 333
266 265 264 265 268 271 274 276 278 279 282 285 289 291 295 297 298 302 307 309 313 317 324 326 324 322 323 327 330 328 331 332 337 337 336 335 336 337 337 335 333 333 332
260 259 261 263 266 270 271 271 275 276 280 284 287 290 292 293 296 298 303 308 311 319 324 327 326 325 327 329 330 329 328 332 335 337 337 338 339 338 337 336 335 332 332
260 258 258 261 264 268 268 271 271 272 276 279 282 287 288 291 294 297 300 302 305 315 319 323 325 327 330 332 333 332 333 337 336 339 340 342 342 340 339 337 336 333 330
255 254 256 260 262 263 262 264 263 265 268 271 275 279 283 287 289 295 300 302 306 309 315 324 327 329 330 333 334 335 336 337 337 338 339 338 338 337 338 337 336 333 332
254 252 254 257 258 256 253 255 257 259 261 263 264 270 275 283 289 291 296 304 308 312 317 326 330 331 332 335 335 336 336 336 336 334 334 335 336 336 336 336 336 335 334
252 251 252 252 253 253 255 255 256 255 253 253 257 264 270 276 280 287 293 299 307 316 321 321 325 327 328 331 334 336 336 336 337 335 336 337 338 338 337 337 335 336 334
254 253 251 250 247 248 253 255 256 257 253 250 254 256 258 266 272 279 282 290 302 312 319 318 320 323 325 329 332 335 337 337 337 338 337 336 336 336 335 337 335 335 333
252 251 249 248 247 247 247 253 260 259 259 259 255 255 268 273 270 279 287 295 305 311 312 311 315 318 320 323 327 329 333 333 335 336 335 335 335 334 335 335 335 334 333
251 247 245 244 245 243 242 240 241 252 254 254 252 257 259 259 268 280 291 298 304 308 307 310 314 316 319 323 326 327 329 332 335 334 334 334 334 334 334 334 334 334 334
251 244 241 240 241 241 241 239 239 239 240 246 252 256 257 262 270 276 292 305 303 307 307 310 313 316 319 322 325 326 327 329 330 331 332 332 333 333 333 333 334 335 336
248 245 240 238 238 238 239 239 241 243 241 241 247 258 264 269 276 275 286 296 296 301 307 310 314 316 318 320 322 323 325 326 328 330 331 332 333 333 333 334 335 336 336
250 244 238 235 233 235 237 238 241 239 237 240 246 252 261 272 275 280 287 293 296 301 306 309 313 315 317 319 321 322 323 325 327 328 330 331 333 334 334 334 335 336 336
251 243 238 237 236 235 237 240 239 237 239 245 251 259 265 274 276 282 287 292 295 300 304 308 311 314 316 317 319 320 322 324 326 328 329 331 333 333 334 334 335 335 335
254 246 241 238 237 237 239 239 239 242 247 251 259 267 273 278 282 286 291 294 299 302 306 308 309 311 313 315 317 319 321 322 324 327 328 330 331 332 332 333 334 334 334
260 250 245 242 240 239 240 242 245 250 255 260 265 270 275 281 285 288 292 296 299 301 304 306 308 310 312 314 316 318 319 321 324 326 326 327 329 329 330 331 332 331 331
275 260 252 250 244 245 248 251 256 259 263 267 271 276 280 284 286 290 293 296 298 300 303 305 306 308 310 312 314 316 318 320 322 323 324 325 326 328 328 329 329 329 329
292 279 267 262 261 261 262 264 266 269 272 275 278 281 284 287 289 290 292 294 297 299 301 303 304 305 307 308 311 313 315 316 318 319 321 322 323 324 325 326 326 327 329
304 295 286 281 278 277 276 275 276 277 279 281 282 284 286 288 289 291 292 294 295 297 298 300 301 302 304 306 308 309 311 312 314 316 318 320 320 322 323 323 325 326 328